Zurück zum Katalog

STARLINK-37274

AktivKommunikationVLEO
NORAD 68724·PAYLOAD·🇺🇸 United States

Gestartet Apr 14, 2026 von Cape Canaveral Space Force Station

Loading…

Nächste Überflüge (nächste 24 Stunden)

TLE

AktuellSource: CelesTrak SupGP

Epoche: Sep 14, 2026, 21:19 UTC

1 68724C 26081AB  26257.88868056  .00039260  00000+0  11597-2 0  2576
2 68724  53.1581 231.7074 0001415  94.9606 143.6573 15.34378092    13

Verfolge STARLINK-37274 in Echtzeit mit AllMySat

Download on the App Store